Time,TemperatureF,DewpointF,PressureIn,WindDirection,WindDirectionDegrees,WindSpeedMPH,WindSpeedGustMPH,Humidity,HourlyPrecipIn,Conditions,Clouds,dailyrainin,SoftwareType,DateUTC
2013-02-06 00:03:00,35.5,31.7,29.77,SSE,161,6.0,6.0,86,0.00,,SCT110,0.00,VWS V14.01,2013-02-06 08:03:00,
2013-02-06 00:08:00,35.5,31.5,29.77,SSE,150,6.0,8.0,85,0.00,,SCT110,0.00,VWS V14.01,2013-02-06 08:08:00,
2013-02-06 00:13:00,35.5,31.5,29.77,SSE,162,1.0,8.0,85,0.00,,SCT110,0.00,VWS V14.01,2013-02-06 08:13:00,
2013-02-06 00:19:00,35.6,31.2,29.77,South,188,2.0,7.0,84,0.00,,SCT110,0.00,VWS V14.01,2013-02-06 08:19:00,
2013-02-06 00:24:00,35.8,31.5,29.77,SSE,155,2.0,7.0,84,0.00,,SCT110,0.00,VWS V14.01,2013-02-06 08:24:00,
2013-02-06 00:29:00,35.6,31.2,29.77,SE,134,2.0,7.0,84,0.00,,SCT110,0.00,VWS V14.01,2013-02-06 08:29:00,
2013-02-06 00:34:00,35.6,31.2,29.76,SSW,192,4.0,7.0,84,0.00,,SCT110,0.00,VWS V14.01,2013-02-06 08:34:00,
2013-02-06 00:39:00,35.6,31.2,29.76,SSE,168,2.0,8.0,84,0.00,,SCT110,0.00,VWS V14.01,2013-02-06 08:39:00,
2013-02-06 00:44:00,35.8,31.5,29.76,South,178,3.0,9.0,84,0.00,,SCT110,0.00,VWS V14.01,2013-02-06 08:44:00,
2013-02-06 00:49:00,35.9,31.5,29.76,SSE,164,5.0,8.0,84,0.00,,SCT110,0.00,VWS V14.01,2013-02-06 08:49:00,
2013-02-06 00:54:00,35.9,31.5,29.76,SSE,155,4.0,8.0,84,0.00,,SCT110,0.00,VWS V14.01,2013-02-06 08:54:00,
2013-02-06 00:59:00,36.0,31.6,29.76,SSE,161,4.0,12.0,84,0.00,,SCT110,0.00,VWS V14.01,2013-02-06 08:59:00,
2013-02-06 01:04:00,35.9,31.5,29.76,South,191,1.0,8.0,84,0.00,,SCT110,0.00,VWS V14.01,2013-02-06 09:04:00,
2013-02-06 01:09:00,35.9,31.5,29.76,SSE,152,5.0,8.0,84,0.00,,SCT110,0.00,VWS V14.01,2013-02-06 09:09:00,
2013-02-06 01:14:00,35.9,31.5,29.76,South,182,6.0,11.0,84,0.00,,SCT110,0.00,VWS V14.01,2013-02-06 09:14:00,
2013-02-06 01:20:00,35.9,31.5,29.77,South,175,5.0,8.0,84,0.00,,SCT110,0.00,VWS V14.01,2013-02-06 09:20:00,
2013-02-06 01:25:00,35.9,31.5,29.77,SE,141,8.0,10.0,84,0.00,,SCT110,0.00,VWS V14.01,2013-02-06 09:25:00,
2013-02-06 01:30:00,35.9,31.5,29.77,South,178,6.0,10.0,84,0.00,,SCT110,0.00,VWS V14.01,2013-02-06 09:30:00,
2013-02-06 01:35:00,35.9,31.8,29.77,South,169,4.0,10.0,85,0.00,,SCT110,0.00,VWS V14.01,2013-02-06 09:35:00,
2013-02-06 01:40:00,35.9,31.8,29.77,East,93,4.0,12.0,85,0.00,,BKN100,0.00,VWS V14.01,2013-02-06 09:40:00,
2013-02-06 01:45:00,35.9,31.8,29.77,SSE,157,3.0,12.0,85,0.00,,BKN100,0.00,VWS V14.01,2013-02-06 09:45:00,
2013-02-06 01:50:00,36.0,31.9,29.77,SSW,210,7.0,11.0,85,0.00,,BKN100,0.00,VWS V14.01,2013-02-06 09:50:00,
2013-02-06 01:55:00,35.9,31.8,29.77,South,175,3.0,11.0,85,0.00,,BKN100,0.00,VWS V14.01,2013-02-06 09:55:00,
2013-02-06 02:00:00,35.9,31.8,29.78,SSW,210,11.0,14.0,85,0.00,,BKN100,0.00,VWS V14.01,2013-02-06 10:00:00,
2013-02-06 02:05:00,35.9,31.8,29.78,SSW,198,7.0,7.0,85,0.00,,BKN100,0.00,VWS V14.01,2013-02-06 10:05:00,
2013-02-06 02:10:00,35.8,31.7,29.78,SSE,168,3.0,7.0,85,0.00,,BKN100,0.00,VWS V14.01,2013-02-06 10:10:00,
2013-02-06 02:15:00,35.8,31.7,29.78,South,186,8.0,13.0,85,0.00,,BKN100,0.00,VWS V14.01,2013-02-06 10:15:00,
2013-02-06 02:20:00,35.8,31.7,29.78,SSE,162,5.0,10.0,85,0.00,,BKN100,0.00,VWS V14.01,2013-02-06 10:20:00,
2013-02-06 02:26:00,35.8,31.7,29.78,SSE,154,2.0,12.0,85,0.00,,BKN100,0.00,VWS V14.01,2013-02-06 10:26:00,
2013-02-06 02:31:00,35.6,31.5,29.78,SSE,155,8.0,8.0,85,0.00,,BKN100,0.00,VWS V14.01,2013-02-06 10:31:00,
2013-02-06 02:36:00,35.6,31.5,29.78,South,176,3.0,10.0,85,0.00,,OVC160,0.00,VWS V14.01,2013-02-06 10:36:00,
2013-02-06 02:41:00,35.5,31.5,29.78,SSE,160,1.0,10.0,85,0.00,,OVC160,0.00,VWS V14.01,2013-02-06 10:41:00,
2013-02-06 02:46:00,35.5,31.5,29.78,South,186,6.0,6.0,85,0.00,,OVC160,0.00,VWS V14.01,2013-02-06 10:46:00,
2013-02-06 02:51:00,35.3,31.2,29.78,South,172,2.0,7.0,85,0.00,,OVC160,0.00,VWS V14.01,2013-02-06 10:51:00,
2013-02-06 02:56:00,35.3,31.2,29.78,SSE,164,3.0,11.0,85,0.00,,OVC160,0.00,VWS V14.01,2013-02-06 10:56:00,
2013-02-06 03:01:00,35.2,31.1,29.78,South,182,7.0,7.0,85,0.00,,OVC160,0.00,VWS V14.01,2013-02-06 11:01:00,
2013-02-06 03:06:00,35.2,31.1,29.78,SSW,213,6.0,8.0,85,0.00,,OVC160,0.00,VWS V14.01,2013-02-06 11:06:00,
2013-02-06 03:11:00,35.2,31.1,29.78,South,179,6.0,9.0,85,0.00,,OVC160,0.00,VWS V14.01,2013-02-06 11:11:00,
2013-02-06 03:16:00,35.0,31.0,29.78,SSW,200,3.0,5.0,85,0.00,,OVC160,0.00,VWS V14.01,2013-02-06 11:16:00,
2013-02-06 03:21:00,35.0,31.0,29.78,SSW,213,3.0,9.0,85,0.00,,OVC160,0.00,VWS V14.01,2013-02-06 11:21:00,
2013-02-06 03:26:00,35.0,31.0,29.78,SSE,158,2.0,12.0,85,0.00,,OVC160,0.00,VWS V14.01,2013-02-06 11:26:00,
2013-02-06 03:31:00,34.9,30.9,29.78,SSE,158,2.0,8.0,85,0.00,,OVC160,0.00,VWS V14.01,2013-02-06 11:31:00,
2013-02-06 03:37:00,34.7,30.7,29.78,SSE,155,9.0,9.0,85,0.00,,OVC140,0.00,VWS V14.01,2013-02-06 11:37:00,
2013-02-06 03:42:00,34.6,30.9,29.78,South,184,3.0,9.0,86,0.00,,OVC140,0.00,VWS V14.01,2013-02-06 11:42:00,
2013-02-06 03:47:00,34.6,30.6,29.79,SSW,203,1.0,5.0,85,0.00,,OVC140,0.00,VWS V14.01,2013-02-06 11:47:00,
2013-02-06 03:52:00,34.6,30.6,29.79,SE,143,8.0,8.0,85,0.00,,OVC140,0.00,VWS V14.01,2013-02-06 11:52:00,
2013-02-06 03:57:00,34.4,30.6,29.79,South,169,9.0,9.0,86,0.00,,OVC140,0.00,VWS V14.01,2013-02-06 11:57:00,
2013-02-06 04:02:00,34.4,30.6,29.80,SSE,164,2.0,3.0,86,0.00,,OVC140,0.00,VWS V14.01,2013-02-06 12:02:00,
2013-02-06 04:07:00,34.4,30.6,29.80,East,97,2.0,8.0,86,0.00,,OVC140,0.00,VWS V14.01,2013-02-06 12:07:00,
2013-02-06 04:12:00,34.4,30.6,29.80,SSE,157,2.0,10.0,86,0.00,,OVC140,0.00,VWS V14.01,2013-02-06 12:12:00,
2013-02-06 04:17:00,34.4,30.6,29.81,SSE,161,5.0,8.0,86,0.00,,OVC140,0.00,VWS V14.01,2013-02-06 12:17:00,
2013-02-06 04:22:00,34.4,30.6,29.81,SSE,158,1.0,10.0,86,0.00,,OVC140,0.00,VWS V14.01,2013-02-06 12:22:00,
2013-02-06 04:27:00,34.4,30.6,29.81,SSE,162,4.0,10.0,86,0.00,,OVC140,0.00,VWS V14.01,2013-02-06 12:27:00,
2013-02-06 04:32:00,34.3,30.6,29.81,SSE,150,0.0,9.0,86,0.00,,OVC140,0.00,VWS V14.01,2013-02-06 12:32:00,
2013-02-06 04:37:00,34.3,30.6,29.81,SSE,157,5.0,9.0,86,0.00,,OVC140,0.00,VWS V14.01,2013-02-06 12:37:00,
2013-02-06 04:42:00,34.1,30.4,29.81,SSE,162,5.0,9.0,86,0.00,,OVC140,0.00,VWS V14.01,2013-02-06 12:42:00,
2013-02-06 04:47:00,34.1,30.4,29.82,SSW,192,3.0,7.0,86,0.00,,OVC140,0.00,VWS V14.01,2013-02-06 12:47:00,
2013-02-06 04:53:00,34.1,30.4,29.82,SSW,199,2.0,8.0,86,0.00,,OVC140,0.00,VWS V14.01,2013-02-06 12:53:00,
2013-02-06 04:58:00,34.1,30.4,29.82,South,174,4.0,8.0,86,0.00,,OVC140,0.00,VWS V14.01,2013-02-06 12:58:00,
2013-02-06 05:03:00,34.0,30.5,29.82,SSW,203,5.0,5.0,87,0.00,,OVC140,0.00,VWS V14.01,2013-02-06 13:03:00,
2013-02-06 05:08:00,34.0,30.5,29.82,SSW,199,3.0,7.0,87,0.00,,OVC140,0.00,VWS V14.01,2013-02-06 13:08:00,
2013-02-06 05:13:00,34.0,30.5,29.82,South,185,2.0,10.0,87,0.00,,OVC140,0.00,VWS V14.01,2013-02-06 13:13:00,
2013-02-06 05:18:00,34.0,30.5,29.83,SSE,158,0.0,6.0,87,0.00,,OVC140,0.00,VWS V14.01,2013-02-06 13:18:00,
2013-02-06 05:23:00,34.0,30.5,29.83,SSE,161,2.0,7.0,87,0.00,,OVC140,0.00,VWS V14.01,2013-02-06 13:23:00,
2013-02-06 05:28:00,34.1,30.6,29.83,SE,134,6.0,11.0,87,0.00,,OVC140,0.00,VWS V14.01,2013-02-06 13:28:00,
2013-02-06 05:33:00,34.1,30.6,29.83,SE,138,4.0,7.0,87,0.00,,OVC140,0.00,VWS V14.01,2013-02-06 13:33:00,
2013-02-06 05:38:00,34.1,30.6,29.83,South,172,4.0,7.0,87,0.00,,OVC090,0.00,VWS V14.01,2013-02-06 13:38:00,
2013-02-06 05:43:00,34.1,30.6,29.83,SSE,161,2.0,7.0,87,0.00,,OVC090,0.00,VWS V14.01,2013-02-06 13:43:00,
2013-02-06 05:49:00,34.1,30.6,29.83,SW,232,0.0,7.0,87,0.00,,OVC090,0.00,VWS V14.01,2013-02-06 13:49:00,
2013-02-06 05:54:00,34.1,30.6,29.83,South,186,1.0,7.0,87,0.00,,OVC090,0.00,VWS V14.01,2013-02-06 13:54:00,
2013-02-06 05:59:00,34.3,30.8,29.83,SSW,198,0.0,7.0,87,0.00,,OVC090,0.00,VWS V14.01,2013-02-06 13:59:00,
2013-02-06 06:04:00,34.3,30.8,29.83,SSE,160,0.0,10.0,87,0.00,,OVC090,0.00,VWS V14.01,2013-02-06 14:04:00,
2013-02-06 06:09:00,34.3,30.8,29.83,SE,140,5.0,10.0,87,0.00,,OVC090,0.00,VWS V14.01,2013-02-06 14:09:00,
2013-02-06 06:14:00,34.3,30.8,29.83,South,178,3.0,10.0,87,0.00,,OVC090,0.00,VWS V14.01,2013-02-06 14:14:00,
2013-02-06 06:19:00,34.3,30.8,29.84,SSE,152,2.0,7.0,87,0.00,,OVC090,0.00,VWS V14.01,2013-02-06 14:19:00,
2013-02-06 06:24:00,34.3,30.8,29.84,SSW,206,0.0,7.0,87,0.00,,OVC090,0.00,VWS V14.01,2013-02-06 14:24:00,
2013-02-06 06:30:00,34.3,30.8,29.84,South,171,0.0,7.0,87,0.00,,OVC090,0.00,VWS V14.01,2013-02-06 14:30:00,
2013-02-06 06:35:00,34.3,30.8,29.85,SSE,164,0.0,4.0,87,0.00,,OVC090,0.00,VWS V14.01,2013-02-06 14:35:00,
2013-02-06 06:40:00,34.3,30.8,29.85,SSW,203,0.0,5.0,87,0.00,,OVC075,0.00,VWS V14.01,2013-02-06 14:40:00,
2013-02-06 06:45:00,34.3,30.8,29.86,SSE,157,0.0,6.0,87,0.00,,OVC075,0.00,VWS V14.01,2013-02-06 14:45:00,
2013-02-06 06:50:00,34.3,30.8,29.86,SSE,162,1.0,6.0,87,0.00,,OVC075,0.00,VWS V14.01,2013-02-06 14:50:00,
2013-02-06 06:55:00,34.3,30.8,29.86,South,169,5.0,6.0,87,0.00,,OVC075,0.00,VWS V14.01,2013-02-06 14:55:00,
2013-02-06 07:00:00,34.3,30.8,29.86,SSE,164,0.0,8.0,87,0.00,,OVC075,0.00,VWS V14.01,2013-02-06 15:00:00,
2013-02-06 07:05:00,34.4,30.9,29.86,SSW,193,2.0,9.0,87,0.00,,OVC075,0.00,VWS V14.01,2013-02-06 15:05:00,
2013-02-06 07:10:00,34.4,30.9,29.86,South,182,3.0,9.0,87,0.00,,OVC075,0.00,VWS V14.01,2013-02-06 15:10:00,
2013-02-06 07:15:00,34.4,30.9,29.87,SSE,161,8.0,9.0,87,0.00,,OVC075,0.00,VWS V14.01,2013-02-06 15:15:00,
2013-02-06 07:21:00,34.4,30.9,29.87,SSW,196,0.0,8.0,87,0.00,,OVC100,0.00,VWS V14.01,2013-02-06 15:21:00,
2013-02-06 07:26:00,34.3,30.8,29.87,SSE,148,1.0,8.0,87,0.00,,OVC100,0.00,VWS V14.01,2013-02-06 15:26:00,
2013-02-06 07:31:00,34.3,30.8,29.87,SE,145,5.0,5.0,87,0.00,,OVC100,0.00,VWS V14.01,2013-02-06 15:31:00,
2013-02-06 07:36:00,34.3,30.8,29.87,South,169,5.0,7.0,87,0.00,,OVC095,0.00,VWS V14.01,2013-02-06 15:36:00,
2013-02-06 07:41:00,34.3,30.8,29.87,SSE,164,1.0,8.0,87,0.00,,OVC095,0.00,VWS V14.01,2013-02-06 15:41:00,
2013-02-06 07:46:00,34.4,30.9,29.88,South,181,4.0,5.0,87,0.00,,OVC095,0.00,VWS V14.01,2013-02-06 15:46:00,
2013-02-06 07:51:00,34.4,30.9,29.88,South,176,5.0,12.0,87,0.00,,OVC095,0.00,VWS V14.01,2013-02-06 15:51:00,
2013-02-06 07:56:00,34.6,31.1,29.88,South,175,9.0,12.0,87,0.00,,OVC095,0.00,VWS V14.01,2013-02-06 15:56:00,
2013-02-06 08:01:00,34.6,31.1,29.87,SE,138,5.0,8.0,87,0.00,,OVC095,0.00,VWS V14.01,2013-02-06 16:01:00,
2013-02-06 08:06:00,34.6,31.1,29.87,South,175,3.0,10.0,87,0.00,,OVC095,0.00,VWS V14.01,2013-02-06 16:06:00,
2013-02-06 08:11:00,34.6,31.1,29.87,SSW,206,4.0,10.0,87,0.00,,OVC095,0.00,VWS V14.01,2013-02-06 16:11:00,
2013-02-06 08:16:00,34.6,30.9,29.88,SSE,157,4.0,4.0,86,0.00,,OVC095,0.00,VWS V14.01,2013-02-06 16:16:00,
2013-02-06 08:22:00,34.7,31.0,29.88,South,189,6.0,7.0,86,0.00,,OVC095,0.00,VWS V14.01,2013-02-06 16:22:00,
2013-02-06 08:27:00,34.7,31.0,29.88,South,176,3.0,8.0,86,0.00,,OVC095,0.00,VWS V14.01,2013-02-06 16:27:00,
2013-02-06 08:32:00,34.9,31.1,29.88,SW,232,0.0,0.0,86,0.00,,OVC095,0.00,VWS V14.01,2013-02-06 16:32:00,
2013-02-06 08:37:00,34.9,31.1,29.88,South,185,0.0,6.0,86,0.00,,BKN110,0.00,VWS V14.01,2013-02-06 16:37:00,
2013-02-06 08:42:00,34.9,31.1,29.88,SSW,202,13.0,13.0,86,0.00,,BKN110,0.00,VWS V14.01,2013-02-06 16:42:00,
2013-02-06 08:47:00,35.0,31.2,29.89,SSE,168,7.0,7.0,86,0.00,,BKN110,0.00,VWS V14.01,2013-02-06 16:47:00,
2013-02-06 08:52:00,35.0,31.0,29.89,South,172,0.0,8.0,85,0.00,,BKN110,0.00,VWS V14.01,2013-02-06 16:52:00,
2013-02-06 08:57:00,35.2,31.1,29.89,South,188,3.0,8.0,85,0.00,,BKN110,0.00,VWS V14.01,2013-02-06 16:57:00,
2013-02-06 09:02:00,35.8,31.5,29.89,SSW,192,5.0,7.0,84,0.00,,BKN110,0.00,VWS V14.01,2013-02-06 17:02:00,
2013-02-06 09:08:00,36.2,31.5,29.89,SSE,147,5.0,10.0,83,0.00,,BKN110,0.00,VWS V14.01,2013-02-06 17:08:00,
2013-02-06 09:13:00,36.8,31.5,29.89,West,272,0.0,10.0,81,0.00,,BKN110,0.00,VWS V14.01,2013-02-06 17:13:00,
2013-02-06 09:18:00,36.6,31.3,29.89,SSE,148,2.0,5.0,81,0.00,,BKN110,0.00,VWS V14.01,2013-02-06 17:18:00,
2013-02-06 09:23:00,36.9,31.3,29.89,SSE,152,2.0,8.0,80,0.00,,BKN110,0.00,VWS V14.01,2013-02-06 17:23:00,
2013-02-06 09:28:00,37.3,31.4,29.89,SSW,202,3.0,8.0,79,0.00,,BKN110,0.00,VWS V14.01,2013-02-06 17:28:00,
2013-02-06 09:33:00,37.9,31.7,29.89,SSE,157,1.0,2.0,78,0.00,,BKN110,0.00,VWS V14.01,2013-02-06 17:33:00,
2013-02-06 09:38:00,38.5,31.9,29.89,SSW,193,0.0,5.0,77,0.00,,BKN220,0.00,VWS V14.01,2013-02-06 17:38:00,
2013-02-06 09:43:00,38.6,31.7,29.89,SE,130,0.0,6.0,76,0.00,,BKN220,0.00,VWS V14.01,2013-02-06 17:43:00,
2013-02-06 09:48:00,38.8,31.6,29.90,SSE,148,6.0,6.0,75,0.00,,BKN220,0.00,VWS V14.01,2013-02-06 17:48:00,
2013-02-06 09:53:00,38.6,31.4,29.90,SE,144,0.0,6.0,75,0.00,,BKN220,0.00,VWS V14.01,2013-02-06 17:53:00,
2013-02-06 09:58:00,38.5,31.3,29.90,SE,144,0.0,6.0,75,0.00,,BKN220,0.00,VWS V14.01,2013-02-06 17:58:00,
2013-02-06 10:03:00,38.3,31.1,29.91,SSE,160,0.0,4.0,75,0.00,,BKN220,0.00,VWS V14.01,2013-02-06 18:03:00,
2013-02-06 10:09:00,38.5,31.3,29.91,SSE,167,0.0,5.0,75,0.00,,BKN220,0.00,VWS V14.01,2013-02-06 18:09:00,
2013-02-06 10:14:00,38.5,31.3,29.91,West,264,1.0,5.0,75,0.00,,BKN220,0.00,VWS V14.01,2013-02-06 18:14:00,
2013-02-06 10:19:00,39.1,31.5,29.91,SSW,200,2.0,6.0,74,0.00,,BKN220,0.00,VWS V14.01,2013-02-06 18:19:00,
2013-02-06 10:24:00,39.3,31.4,29.91,South,172,0.0,6.0,73,0.00,,BKN220,0.00,VWS V14.01,2013-02-06 18:24:00,
2013-02-06 10:29:00,39.5,31.6,29.91,West,281,0.0,7.0,73,0.00,,BKN220,0.00,VWS V14.01,2013-02-06 18:29:00,
2013-02-06 10:34:00,39.6,31.7,29.91,WNW,284,1.0,7.0,73,0.00,,BKN220,0.00,VWS V14.01,2013-02-06 18:34:00,
2013-02-06 10:39:00,39.6,31.7,29.91,West,270,3.0,7.0,73,0.00,,BKN220,0.00,VWS V14.01,2013-02-06 18:39:00,
2013-02-06 10:44:00,39.9,31.6,29.91,South,188,0.0,7.0,72,0.00,,BKN220,0.00,VWS V14.01,2013-02-06 18:44:00,
2013-02-06 10:49:00,39.9,31.3,29.91,SSE,151,6.0,9.0,71,0.00,,BKN220,0.00,VWS V14.01,2013-02-06 18:49:00,
2013-02-06 10:55:00,40.2,31.6,29.91,West,267,0.0,9.0,71,0.00,,BKN220,0.00,VWS V14.01,2013-02-06 18:55:00,
2013-02-06 11:00:00,40.8,31.8,29.91,SSE,167,4.0,9.0,70,0.00,,BKN220,0.00,VWS V14.01,2013-02-06 19:00:00,
2013-02-06 11:05:00,41.2,32.2,29.91,SSE,168,0.0,0.0,70,0.00,,BKN220,0.00,VWS V14.01,2013-02-06 19:05:00,
2013-02-06 11:10:00,41.5,31.7,29.91,WSW,251,0.0,3.0,68,0.00,,BKN220,0.00,VWS V14.01,2013-02-06 19:10:00,
2013-02-06 11:15:00,41.6,31.8,29.90,WSW,237,3.0,5.0,68,0.00,,BKN220,0.00,VWS V14.01,2013-02-06 19:15:00,
2013-02-06 11:20:00,41.9,32.1,29.90,SSW,200,0.0,3.0,68,0.00,,BKN220,0.00,VWS V14.01,2013-02-06 19:20:00,
2013-02-06 11:25:00,42.2,31.7,29.90,SSE,148,6.0,6.0,66,0.00,,BKN220,0.00,VWS V14.01,2013-02-06 19:25:00,
2013-02-06 11:30:00,41.9,31.8,29.90,SSW,212,3.0,7.0,67,0.00,,BKN220,0.00,VWS V14.01,2013-02-06 19:30:00,
2013-02-06 11:35:00,42.2,32.4,29.90,South,185,2.0,4.0,68,0.00,,BKN220,0.00,VWS V14.01,2013-02-06 19:35:00,
2013-02-06 11:40:00,42.6,31.7,29.90,South,175,0.0,5.0,65,0.00,,BKN220,0.00,VWS V14.01,2013-02-06 19:40:00,
2013-02-06 11:45:00,42.6,32.0,29.90,South,188,0.0,6.0,66,0.00,,BKN220,0.00,VWS V14.01,2013-02-06 19:45:00,
2013-02-06 11:51:00,42.6,31.7,29.90,SSW,192,2.0,9.0,65,0.00,,BKN220,0.00,VWS V14.01,2013-02-06 19:51:00,
2013-02-06 11:56:00,42.6,31.7,29.90,West,268,3.0,9.0,65,0.00,,BKN220,0.00,VWS V14.01,2013-02-06 19:56:00,
2013-02-06 12:01:00,43.1,32.2,29.90,SSE,165,0.0,0.0,65,0.00,,BKN220,0.00,VWS V14.01,2013-02-06 20:01:00,
2013-02-06 12:06:00,42.8,31.5,29.90,WSW,244,3.0,6.0,64,0.00,,BKN220,0.00,VWS V14.01,2013-02-06 20:06:00,
2013-02-06 12:11:00,42.5,32.0,29.90,South,186,3.0,7.0,66,0.00,,BKN220,0.00,VWS V14.01,2013-02-06 20:11:00,
2013-02-06 12:16:00,42.2,31.3,29.90,SW,230,4.0,4.0,65,0.00,,BKN220,0.00,VWS V14.01,2013-02-06 20:16:00,
2013-02-06 12:21:00,42.3,31.4,29.90,SW,222,3.0,6.0,65,0.00,,BKN220,0.00,VWS V14.01,2013-02-06 20:21:00,
2013-02-06 12:26:00,42.3,31.8,29.90,SSE,164,0.0,6.0,66,0.00,,BKN220,0.00,VWS V14.01,2013-02-06 20:26:00,
2013-02-06 12:31:00,42.3,31.4,29.90,SSE,158,0.0,0.0,65,0.00,,BKN220,0.00,VWS V14.01,2013-02-06 20:31:00,
2013-02-06 12:36:00,42.8,31.5,29.90,WNW,282,5.0,5.0,64,0.00,,BKN220,0.00,VWS V14.01,2013-02-06 20:36:00,
2013-02-06 12:41:00,43.1,32.2,29.90,WSW,248,0.0,5.0,65,0.00,,BKN220,0.00,VWS V14.01,2013-02-06 20:41:00,
2013-02-06 12:46:00,42.8,31.9,29.90,SSW,196,0.0,0.0,65,0.00,,BKN220,0.00,VWS V14.01,2013-02-06 20:46:00,
2013-02-06 12:52:00,42.6,31.7,29.90,SSW,209,1.0,7.0,65,0.00,,BKN220,0.00,VWS V14.01,2013-02-06 20:52:00,
2013-02-06 12:57:00,42.6,31.7,29.90,SE,128,3.0,7.0,65,0.00,,BKN220,0.00,VWS V14.01,2013-02-06 20:57:00,
2013-02-06 13:02:00,42.5,31.6,29.90,South,186,0.0,2.0,65,0.00,,BKN220,0.00,VWS V14.01,2013-02-06 21:02:00,
2013-02-06 13:07:00,42.8,31.9,29.90,WSW,253,0.0,5.0,65,0.00,,BKN220,0.00,VWS V14.01,2013-02-06 21:07:00,
2013-02-06 13:12:00,42.8,31.5,29.90,South,188,0.0,5.0,64,0.00,,BKN220,0.00,VWS V14.01,2013-02-06 21:12:00,
2013-02-06 13:17:00,42.5,31.6,29.90,South,169,2.0,5.0,65,0.00,,BKN220,0.00,VWS V14.01,2013-02-06 21:17:00,
2013-02-06 13:22:00,42.3,31.8,29.90,SE,143,6.0,6.0,66,0.00,,BKN220,0.00,VWS V14.01,2013-02-06 21:22:00,
2013-02-06 13:27:00,42.1,31.6,29.90,South,179,0.0,6.0,66,0.00,,BKN220,0.00,VWS V14.01,2013-02-06 21:27:00,
2013-02-06 13:32:00,42.5,31.6,29.90,South,181,0.0,0.0,65,0.00,,BKN220,0.00,VWS V14.01,2013-02-06 21:32:00,
2013-02-06 13:37:00,42.5,32.0,29.90,WSW,258,0.0,5.0,66,0.00,,BKN220,0.00,VWS V14.01,2013-02-06 21:37:00,
2013-02-06 13:42:00,42.3,32.1,29.90,WSW,246,3.0,5.0,67,0.00,,BKN220,0.00,VWS V14.01,2013-02-06 21:42:00,
2013-02-06 13:47:00,42.3,32.1,29.90,WSW,254,0.0,2.0,67,0.00,,BKN220,0.00,VWS V14.01,2013-02-06 21:47:00,
2013-02-06 13:52:00,42.5,31.6,29.90,West,281,2.0,3.0,65,0.00,,BKN220,0.00,VWS V14.01,2013-02-06 21:52:00,
2013-02-06 13:58:00,42.5,32.0,29.90,WSW,251,0.0,3.0,66,0.00,,BKN220,0.00,VWS V14.01,2013-02-06 21:58:00,
2013-02-06 14:03:00,42.5,31.2,29.90,West,267,5.0,6.0,64,0.00,,BKN220,0.00,VWS V14.01,2013-02-06 22:03:00,
2013-02-06 14:08:00,42.2,31.3,29.90,West,265,0.0,7.0,65,0.00,,BKN220,0.00,VWS V14.01,2013-02-06 22:08:00,
2013-02-06 14:13:00,42.2,31.3,29.90,West,265,0.0,7.0,65,0.00,,BKN220,0.00,VWS V14.01,2013-02-06 22:13:00,
2013-02-06 14:18:00,42.5,31.2,29.90,West,265,0.0,3.0,64,0.00,,BKN220,0.00,VWS V14.01,2013-02-06 22:18:00,
2013-02-06 14:23:00,42.6,31.7,29.90,West,265,0.0,3.0,65,0.00,,BKN220,0.00,VWS V14.01,2013-02-06 22:23:00,
2013-02-06 14:28:00,42.8,31.5,29.90,West,265,1.0,3.0,64,0.00,,BKN220,0.00,VWS V14.01,2013-02-06 22:28:00,
2013-02-06 14:33:00,42.8,31.5,29.90,West,265,0.0,0.0,64,0.00,,BKN220,0.00,VWS V14.01,2013-02-06 22:33:00,
2013-02-06 14:38:00,42.6,31.3,29.90,SW,230,0.0,2.0,64,0.00,,BKN200,0.00,VWS V14.01,2013-02-06 22:38:00,
2013-02-06 14:43:00,42.6,31.3,29.90,WSW,244,0.0,2.0,64,0.00,,BKN200,0.00,VWS V14.01,2013-02-06 22:43:00,
2013-02-06 14:48:00,42.8,31.5,29.90,WSW,243,0.0,0.0,64,0.00,,BKN200,0.00,VWS V14.01,2013-02-06 22:48:00,
2013-02-06 14:54:00,42.9,31.2,29.90,WSW,243,0.0,2.0,63,0.00,,BKN200,0.00,VWS V14.01,2013-02-06 22:54:00,
2013-02-06 14:59:00,42.8,31.1,29.90,SW,227,0.0,2.0,63,0.00,,BKN200,0.00,VWS V14.01,2013-02-06 22:59:00,
2013-02-06 15:04:00,42.8,31.5,29.91,SW,224,0.0,0.0,64,0.00,,BKN200,0.00,VWS V14.01,2013-02-06 23:04:00,
2013-02-06 15:09:00,42.6,31.3,29.91,SW,232,0.0,3.0,64,0.00,,BKN200,0.00,VWS V14.01,2013-02-06 23:09:00,
2013-02-06 15:14:00,42.6,30.9,29.91,SW,232,0.0,3.0,63,0.00,,BKN200,0.00,VWS V14.01,2013-02-06 23:14:00,
2013-02-06 15:19:00,42.6,31.3,29.91,SW,232,0.0,0.0,64,0.00,,BKN200,0.00,VWS V14.01,2013-02-06 23:19:00,
2013-02-06 15:24:00,42.6,31.3,29.91,SW,232,0.0,0.0,64,0.00,,BKN200,0.00,VWS V14.01,2013-02-06 23:24:00,
2013-02-06 15:29:00,42.6,31.3,29.91,SW,232,0.0,1.0,64,0.00,,BKN200,0.00,VWS V14.01,2013-02-06 23:29:00,
2013-02-06 15:34:00,42.5,31.2,29.92,SW,232,0.0,0.0,64,0.00,,BKN200,0.00,VWS V14.01,2013-02-06 23:34:00,
2013-02-06 15:39:00,42.5,31.2,29.92,SSW,209,0.0,2.0,64,0.00,,OVC200,0.00,VWS V14.01,2013-02-06 23:39:00,
2013-02-06 15:44:00,42.5,31.2,29.92,South,175,0.0,5.0,64,0.00,,OVC200,0.00,VWS V14.01,2013-02-06 23:44:00,
2013-02-06 15:50:00,42.5,31.6,29.91,South,175,0.0,0.0,65,0.00,,OVC200,0.00,VWS V14.01,2013-02-06 23:50:00,
2013-02-06 15:55:00,42.3,30.6,29.91,SSE,164,1.0,2.0,63,0.00,,OVC200,0.00,VWS V14.01,2013-02-06 23:55:00,
2013-02-06 16:00:00,42.2,30.5,29.91,SSE,158,2.0,2.0,63,0.00,,OVC200,0.00,VWS V14.01,2013-02-07 00:00:00,
2013-02-06 16:05:00,42.2,30.5,29.91,SSE,162,0.0,0.0,63,0.00,,OVC200,0.00,VWS V14.01,2013-02-07 00:05:00,
2013-02-06 16:10:00,42.2,30.9,29.91,SSE,162,0.0,0.0,64,0.00,,OVC160,0.00,VWS V14.01,2013-02-07 00:10:00,
2013-02-06 16:15:00,42.1,30.4,29.91,SW,220,0.0,4.0,63,0.00,,OVC160,0.00,VWS V14.01,2013-02-07 00:15:00,
2013-02-06 16:20:00,41.8,30.5,29.91,SSW,195,0.0,5.0,64,0.00,,OVC160,0.00,VWS V14.01,2013-02-07 00:20:00,
2013-02-06 16:25:00,41.6,30.3,29.91,South,184,0.0,5.0,64,0.00,,OVC160,0.00,VWS V14.01,2013-02-07 00:25:00,
2013-02-06 16:30:00,41.5,29.9,29.91,South,185,1.0,5.0,63,0.00,,OVC160,0.00,VWS V14.01,2013-02-07 00:30:00,
2013-02-06 16:35:00,41.3,30.1,29.91,South,185,0.0,0.0,64,0.00,,OVC160,0.00,VWS V14.01,2013-02-07 00:35:00,
2013-02-06 16:40:00,41.2,30.0,29.91,South,185,0.0,2.0,64,0.00,,OVC160,0.00,VWS V14.01,2013-02-07 00:40:00,
2013-02-06 16:45:00,41.2,30.3,29.92,South,185,0.0,2.0,65,0.00,,OVC160,0.00,VWS V14.01,2013-02-07 00:45:00,
2013-02-06 16:50:00,41.1,30.2,29.92,South,185,0.0,0.0,65,0.00,,OVC160,0.00,VWS V14.01,2013-02-07 00:50:00,
2013-02-06 16:55:00,40.8,30.0,29.92,South,185,0.0,0.0,65,0.00,,OVC160,0.00,VWS V14.01,2013-02-07 00:55:00,
2013-02-06 17:01:00,40.6,29.8,29.91,South,185,0.0,0.0,65,0.00,,OVC160,0.00,VWS V14.01,2013-02-07 01:01:00,
2013-02-06 17:06:00,40.5,30.0,29.91,South,185,0.0,0.0,66,0.00,,OVC160,0.00,VWS V14.01,2013-02-07 01:06:00,
2013-02-06 17:11:00,40.3,29.9,29.91,South,185,0.0,0.0,66,0.00,,OVC160,0.00,VWS V14.01,2013-02-07 01:11:00,
2013-02-06 17:16:00,40.1,30.0,29.91,South,185,0.0,0.0,67,0.00,,OVC160,0.00,VWS V14.01,2013-02-07 01:16:00,
2013-02-06 17:21:00,39.8,29.8,29.91,South,185,0.0,0.0,67,0.00,,OVC160,0.00,VWS V14.01,2013-02-07 01:21:00,
2013-02-06 17:26:00,39.5,30.2,29.91,South,185,0.0,0.0,69,0.00,,OVC160,0.00,VWS V14.01,2013-02-07 01:26:00,
2013-02-06 17:31:00,39.2,29.9,29.91,South,185,0.0,0.0,69,0.00,,OVC160,0.00,VWS V14.01,2013-02-07 01:31:00,
2013-02-06 17:36:00,39.1,29.8,29.91,South,185,0.0,0.0,69,0.00,,OVC160,0.00,VWS V14.01,2013-02-07 01:36:00,
2013-02-06 17:41:00,38.6,30.0,29.91,South,185,0.0,0.0,71,0.00,,OVC160,0.00,VWS V14.01,2013-02-07 01:41:00,
2013-02-06 17:46:00,38.3,29.7,29.91,South,185,0.0,0.0,71,0.00,,OVC160,0.00,VWS V14.01,2013-02-07 01:46:00,
2013-02-06 17:51:00,38.2,30.0,29.91,South,185,0.0,0.0,72,0.00,,OVC160,0.00,VWS V14.01,2013-02-07 01:51:00,
2013-02-06 17:56:00,37.9,29.7,29.91,South,185,0.0,0.0,72,0.00,,OVC160,0.00,VWS V14.01,2013-02-07 01:56:00,
2013-02-06 18:02:00,37.8,29.9,29.90,South,185,0.0,0.0,73,0.00,,OVC160,0.00,VWS V14.01,2013-02-07 02:02:00,
2013-02-06 18:07:00,37.6,30.1,29.90,South,185,0.0,0.0,74,0.00,,OVC160,0.00,VWS V14.01,2013-02-07 02:07:00,
2013-02-06 18:12:00,37.3,29.8,29.90,South,185,0.0,0.0,74,0.00,,OVC160,0.00,VWS V14.01,2013-02-07 02:12:00,
2013-02-06 18:17:00,37.2,30.0,29.90,South,185,0.0,0.0,75,0.00,,OVC160,0.00,VWS V14.01,2013-02-07 02:17:00,
2013-02-06 18:22:00,37.2,30.0,29.90,South,185,0.0,0.0,75,0.00,,OVC160,0.00,VWS V14.01,2013-02-07 02:22:00,
2013-02-06 18:27:00,37.0,29.8,29.90,South,185,0.0,0.0,75,0.00,,OVC160,0.00,VWS V14.01,2013-02-07 02:27:00,
2013-02-06 18:32:00,37.0,29.8,29.90,South,185,0.0,0.0,75,0.00,,OVC160,0.00,VWS V14.01,2013-02-07 02:32:00,
2013-02-06 18:37:00,36.9,30.0,29.90,South,185,0.0,0.0,76,0.00,,OVC160,0.00,VWS V14.01,2013-02-07 02:37:00,
2013-02-06 18:42:00,36.6,29.8,29.90,South,185,0.0,0.0,76,0.00,,OVC160,0.00,VWS V14.01,2013-02-07 02:42:00,
2013-02-06 18:47:00,36.2,29.7,29.90,South,185,0.0,0.0,77,0.00,,OVC160,0.00,VWS V14.01,2013-02-07 02:47:00,
2013-02-06 18:52:00,36.0,29.8,29.90,South,185,0.0,0.0,78,0.00,,OVC160,0.00,VWS V14.01,2013-02-07 02:52:00,
2013-02-06 18:57:00,35.9,29.7,29.90,South,185,0.0,0.0,78,0.00,,OVC160,0.00,VWS V14.01,2013-02-07 02:57:00,
2013-02-06 19:03:00,35.6,29.4,29.90,South,185,0.0,0.0,78,0.00,,OVC160,0.00,VWS V14.01,2013-02-07 03:03:00,
2013-02-06 19:08:00,35.5,29.6,29.90,South,185,0.0,0.0,79,0.00,,OVC160,0.00,VWS V14.01,2013-02-07 03:08:00,
2013-02-06 19:13:00,35.3,29.5,29.90,South,185,0.0,0.0,79,0.00,,OVC160,0.00,VWS V14.01,2013-02-07 03:13:00,
2013-02-06 19:18:00,35.2,29.7,29.89,South,185,0.0,0.0,80,0.00,,OVC160,0.00,VWS V14.01,2013-02-07 03:18:00,
2013-02-06 19:23:00,35.3,29.5,29.89,South,185,1.0,1.0,79,0.00,,OVC160,0.00,VWS V14.01,2013-02-07 03:23:00,
2013-02-06 19:28:00,35.6,29.7,29.89,South,185,0.0,1.0,79,0.00,,OVC160,0.00,VWS V14.01,2013-02-07 03:28:00,
2013-02-06 19:33:00,35.8,29.6,29.89,South,185,0.0,0.0,78,0.00,,OVC160,0.00,VWS V14.01,2013-02-07 03:33:00,
2013-02-06 19:38:00,35.8,29.6,29.89,South,185,0.0,0.0,78,0.00,,OVC180,0.00,VWS V14.01,2013-02-07 03:38:00,
2013-02-06 19:43:00,35.8,29.6,29.89,South,185,0.0,0.0,78,0.00,,OVC180,0.00,VWS V14.01,2013-02-07 03:43:00,
2013-02-06 19:48:00,35.8,29.6,29.89,South,185,0.0,0.0,78,0.00,,OVC180,0.00,VWS V14.01,2013-02-07 03:48:00,
2013-02-06 19:54:00,36.0,29.5,29.89,South,185,0.0,1.0,77,0.00,,OVC180,0.00,VWS V14.01,2013-02-07 03:54:00,
2013-02-06 19:59:00,36.3,29.8,29.89,South,185,0.0,1.0,77,0.00,,OVC180,0.00,VWS V14.01,2013-02-07 03:59:00,
2013-02-06 20:04:00,36.5,29.7,29.89,South,185,0.0,0.0,76,0.00,,OVC180,0.00,VWS V14.01,2013-02-07 04:04:00,
2013-02-06 20:09:00,36.6,29.8,29.89,South,185,0.0,0.0,76,0.00,,OVC180,0.00,VWS V14.01,2013-02-07 04:09:00,
2013-02-06 20:14:00,36.6,29.4,29.89,South,185,0.0,0.0,75,0.00,,OVC180,0.00,VWS V14.01,2013-02-07 04:14:00,
2013-02-06 20:19:00,36.8,29.6,29.88,South,185,0.0,0.0,75,0.00,,OVC180,0.00,VWS V14.01,2013-02-07 04:19:00,
2013-02-06 20:24:00,36.9,29.7,29.88,South,185,0.0,0.0,75,0.00,,OVC180,0.00,VWS V14.01,2013-02-07 04:24:00,
2013-02-06 20:29:00,36.9,29.7,29.88,South,185,0.0,0.0,75,0.00,,OVC180,0.00,VWS V14.01,2013-02-07 04:29:00,
2013-02-06 20:34:00,36.8,29.6,29.88,South,185,0.0,0.0,75,0.00,,OVC180,0.00,VWS V14.01,2013-02-07 04:34:00,
2013-02-06 20:39:00,36.6,29.4,29.88,South,185,0.0,0.0,75,0.00,,OVC180,0.00,VWS V14.01,2013-02-07 04:39:00,
2013-02-06 20:45:00,36.6,29.4,29.88,South,185,0.0,0.0,75,0.00,,OVC180,0.00,VWS V14.01,2013-02-07 04:45:00,
2013-02-06 20:50:00,36.6,29.8,29.88,South,185,0.0,0.0,76,0.00,,OVC180,0.00,VWS V14.01,2013-02-07 04:50:00,
2013-02-06 20:55:00,36.5,29.7,29.88,South,185,0.0,0.0,76,0.00,,OVC180,0.00,VWS V14.01,2013-02-07 04:55:00,
2013-02-06 21:00:00,36.3,29.5,29.88,South,185,0.0,0.0,76,0.00,,OVC180,0.00,VWS V14.01,2013-02-07 05:00:00,
2013-02-06 21:02:00,36.3,29.8,29.88,South,185,0.0,0.0,77,0.00,,OVC180,0.00,VWS V14.01,2013-02-07 05:02:00,
2013-02-06 21:07:00,36.0,29.5,29.88,South,185,0.0,0.0,77,0.00,,OVC180,0.00,VWS V14.01,2013-02-07 05:07:00,
2013-02-06 21:12:00,35.9,29.7,29.88,South,185,0.0,0.0,78,0.00,,OVC180,0.00,VWS V14.01,2013-02-07 05:12:00,
2013-02-06 21:17:00,35.8,29.6,29.87,South,185,0.0,0.0,78,0.00,,OVC180,0.00,VWS V14.01,2013-02-07 05:17:00,
2013-02-06 21:22:00,35.5,29.3,29.87,South,185,0.0,0.0,78,0.00,,OVC180,0.00,VWS V14.01,2013-02-07 05:22:00,
2013-02-06 21:28:00,35.2,29.4,29.87,South,185,0.0,0.0,79,0.00,,OVC180,0.00,VWS V14.01,2013-02-07 05:28:00,
2013-02-06 21:33:00,35.0,29.2,29.86,South,185,0.0,0.0,79,0.00,,OVC180,0.00,VWS V14.01,2013-02-07 05:33:00,
2013-02-06 21:38:00,34.9,29.4,29.86,South,185,0.0,0.0,80,0.00,,OVC180,0.00,VWS V14.01,2013-02-07 05:38:00,
2013-02-06 21:43:00,34.7,29.2,29.86,South,185,0.0,0.0,80,0.00,,OVC180,0.00,VWS V14.01,2013-02-07 05:43:00,
2013-02-06 21:48:00,34.6,29.4,29.86,South,185,0.0,0.0,81,0.00,,OVC180,0.00,VWS V14.01,2013-02-07 05:48:00,
2013-02-06 21:53:00,34.4,29.2,29.86,South,185,0.0,0.0,81,0.00,,OVC180,0.00,VWS V14.01,2013-02-07 05:53:00,
2013-02-06 21:58:00,34.3,29.1,29.86,South,185,0.0,0.0,81,0.00,,OVC180,0.00,VWS V14.01,2013-02-07 05:58:00,
2013-02-06 22:03:00,34.3,29.4,29.86,South,185,0.0,0.0,82,0.00,,OVC180,0.00,VWS V14.01,2013-02-07 06:03:00,
2013-02-06 22:08:00,34.1,29.2,29.86,South,185,0.0,0.0,82,0.00,,OVC180,0.00,VWS V14.01,2013-02-07 06:08:00,
2013-02-06 22:13:00,34.1,29.2,29.86,South,185,0.0,0.0,82,0.00,,OVC180,0.00,VWS V14.01,2013-02-07 06:13:00,
2013-02-06 22:18:00,34.3,29.4,29.85,South,185,0.0,0.0,82,0.00,,OVC180,0.00,VWS V14.01,2013-02-07 06:18:00,
2013-02-06 22:23:00,34.3,29.4,29.85,South,185,0.0,0.0,82,0.00,,OVC180,0.00,VWS V14.01,2013-02-07 06:23:00,
2013-02-06 22:29:00,34.4,29.5,29.85,South,185,0.0,0.0,82,0.00,,OVC180,0.00,VWS V14.01,2013-02-07 06:29:00,
2013-02-06 22:34:00,34.6,29.4,29.85,South,185,0.0,0.0,81,0.00,,OVC180,0.00,VWS V14.01,2013-02-07 06:34:00,
2013-02-06 22:39:00,34.6,29.4,29.85,South,185,0.0,0.0,81,0.00,,OVC095,0.00,VWS V14.01,2013-02-07 06:39:00,
2013-02-06 22:44:00,34.6,29.4,29.85,South,185,0.0,0.0,81,0.00,,OVC095,0.00,VWS V14.01,2013-02-07 06:44:00,
2013-02-06 22:49:00,34.6,29.4,29.84,South,185,0.0,0.0,81,0.00,,OVC095,0.00,VWS V14.01,2013-02-07 06:49:00,
2013-02-06 22:54:00,34.7,29.8,29.84,South,185,0.0,0.0,82,0.00,,OVC095,0.00,VWS V14.01,2013-02-07 06:54:00,
2013-02-06 22:59:00,35.0,29.5,29.84,South,185,0.0,2.0,80,0.00,,OVC095,0.00,VWS V14.01,2013-02-07 06:59:00,
2013-02-06 23:04:00,35.3,29.8,29.83,South,185,0.0,1.0,80,0.00,,OVC095,0.00,VWS V14.01,2013-02-07 07:04:00,
2013-02-06 23:09:00,35.5,30.0,29.83,South,185,0.0,1.0,80,0.00,,OVC095,0.00,VWS V14.01,2013-02-07 07:09:00,
2013-02-06 23:14:00,35.6,30.0,29.83,South,185,0.0,1.0,80,0.00,,OVC095,0.00,VWS V14.01,2013-02-07 07:14:00,
2013-02-06 23:19:00,35.6,30.0,29.83,South,185,0.0,0.0,80,0.00,,OVC095,0.00,VWS V14.01,2013-02-07 07:19:00,
2013-02-06 23:24:00,35.8,29.9,29.83,NE,49,0.0,6.0,79,0.00,,OVC095,0.00,VWS V14.01,2013-02-07 07:24:00,
2013-02-06 23:29:00,35.9,30.0,29.83,East,99,0.0,6.0,79,0.00,,OVC095,0.00,VWS V14.01,2013-02-07 07:29:00,
2013-02-06 23:35:00,35.9,30.0,29.83,East,79,0.0,2.0,79,0.00,,OVC095,0.00,VWS V14.01,2013-02-07 07:35:00,
2013-02-06 23:40:00,36.0,29.8,29.83,NE,48,0.0,2.0,78,0.00,,OVC060,0.00,VWS V14.01,2013-02-07 07:40:00,
2013-02-06 23:45:00,36.0,29.8,29.81,ENE,64,0.0,2.0,78,0.00,,OVC060,0.00,VWS V14.01,2013-02-07 07:45:00,
2013-02-06 23:50:00,36.0,29.8,29.81,East,80,0.0,4.0,78,0.00,,OVC060,0.00,VWS V14.01,2013-02-07 07:50:00,
2013-02-06 23:55:00,36.0,29.8,29.81,ENE,64,0.0,4.0,78,0.00,,OVC060,0.00,VWS V14.01,2013-02-07 07:55:00,